Time,TemperatureF,DewpointF,PressureIn,WindDirection,WindDirectionDegrees,WindSpeedMPH,WindSpeedGustMPH,Humidity,HourlyPrecipIn,Conditions,Clouds,dailyrainin,SoftwareType,DateUTC
2013-03-13 00:00:00,39.9,34.9,30.35,SSE,153,3.0,3.0,82,0.00,,---,0.00,VWS V14.01,2013-03-13 05:00:00,
2013-03-13 00:05:00,39.7,35.0,30.35,SSE,150,2.0,3.0,83,0.00,,---,0.00,VWS V14.01,2013-03-13 05:05:00,
2013-03-13 00:10:00,40.0,35.3,30.35,SSW,197,2.0,3.0,83,0.00,,---,0.00,VWS V14.01,2013-03-13 05:10:00,
2013-03-13 00:15:00,40.1,35.1,30.35,SSW,195,1.0,3.0,82,0.00,,---,0.00,VWS V14.01,2013-03-13 05:15:00,
2013-03-13 00:20:00,39.8,34.8,30.35,SSE,160,1.0,3.0,82,0.00,,---,0.00,VWS V14.01,2013-03-13 05:20:00,
2013-03-13 00:25:00,39.6,34.9,30.35,SSE,158,1.0,3.0,83,0.00,,---,0.00,VWS V14.01,2013-03-13 05:25:00,
2013-03-13 00:30:00,39.5,34.8,30.35,SSE,158,0.0,3.0,83,0.00,,---,0.00,VWS V14.01,2013-03-13 05:30:00,
2013-03-13 00:36:00,39.7,35.3,30.35,SSE,158,0.0,0.0,84,0.00,,---,0.00,VWS V14.01,2013-03-13 05:36:00,
2013-03-13 00:41:00,40.0,35.6,30.35,SSE,158,0.0,0.0,84,0.00,,---,0.00,VWS V14.01,2013-03-13 05:41:00,
2013-03-13 00:46:00,40.1,35.4,30.35,SSE,158,1.0,1.0,83,0.00,,---,0.00,VWS V14.01,2013-03-13 05:46:00,
2013-03-13 00:51:00,39.2,34.2,30.35,SSE,158,0.0,1.0,82,0.00,,---,0.00,VWS V14.01,2013-03-13 05:51:00,
2013-03-13 00:56:00,38.9,34.5,30.35,SSE,158,0.0,1.0,84,0.00,,---,0.00,VWS V14.01,2013-03-13 05:56:00,
2013-03-13 01:01:00,38.9,34.8,30.35,SSE,158,0.0,0.0,85,0.00,,---,0.00,VWS V14.01,2013-03-13 06:01:00,
2013-03-13 01:06:00,39.5,35.7,30.35,SSE,158,1.0,1.0,86,0.00,,---,0.00,VWS V14.01,2013-03-13 06:06:00,
2013-03-13 01:11:00,40.1,35.7,30.35,NNE,30,2.0,2.0,84,0.00,,---,0.00,VWS V14.01,2013-03-13 06:11:00,
2013-03-13 01:17:00,39.9,35.2,30.35,NNE,29,2.0,3.0,83,0.00,,---,0.00,VWS V14.01,2013-03-13 06:17:00,
2013-03-13 01:22:00,39.5,34.8,30.35,NNE,29,0.0,3.0,83,0.00,,---,0.00,VWS V14.01,2013-03-13 06:22:00,
2013-03-13 01:27:00,38.9,33.9,30.36,NNE,29,1.0,3.0,82,0.00,,---,0.00,VWS V14.01,2013-03-13 06:27:00,
2013-03-13 01:32:00,37.9,33.2,30.36,NNE,31,2.0,2.0,83,0.00,,---,0.00,VWS V14.01,2013-03-13 06:32:00,
2013-03-13 01:37:00,37.1,32.7,30.36,South,191,1.0,3.0,84,0.00,,---,0.00,VWS V14.01,2013-03-13 06:37:00,
2013-03-13 01:42:00,36.7,32.9,30.36,SSE,166,1.0,3.0,86,0.00,,---,0.00,VWS V14.01,2013-03-13 06:42:00,
2013-03-13 01:48:00,37.0,33.8,30.36,SSW,201,0.0,3.0,88,0.00,,---,0.00,VWS V14.01,2013-03-13 06:48:00,
2013-03-13 01:53:00,37.4,33.9,30.37,SSW,201,0.0,3.0,87,0.00,,---,0.00,VWS V14.01,2013-03-13 06:53:00,
2013-03-13 01:58:00,37.4,33.6,30.37,SSW,201,0.0,3.0,86,0.00,,---,0.00,VWS V14.01,2013-03-13 06:58:00,
2013-03-13 02:03:00,37.0,33.2,30.37,SSW,201,1.0,1.0,86,0.00,,---,0.00,VWS V14.01,2013-03-13 07:03:00,
2013-03-13 02:08:00,36.8,33.3,30.38,SSW,201,2.0,2.0,87,0.00,,---,0.00,VWS V14.01,2013-03-13 07:08:00,
2013-03-13 02:13:00,36.4,32.9,30.38,SSW,201,0.0,2.0,87,0.00,,---,0.00,VWS V14.01,2013-03-13 07:13:00,
2013-03-13 02:18:00,36.0,32.8,30.38,SW,218,0.0,2.0,88,0.00,,---,0.00,VWS V14.01,2013-03-13 07:18:00,
2013-03-13 02:23:00,36.7,33.8,30.38,SW,217,0.0,2.0,89,0.00,,---,0.00,VWS V14.01,2013-03-13 07:23:00,
2013-03-13 02:29:00,37.2,34.3,30.38,SW,217,0.0,2.0,89,0.00,,---,0.00,VWS V14.01,2013-03-13 07:29:00,
2013-03-13 02:34:00,37.3,33.8,30.39,SSW,205,0.0,0.0,87,0.00,,---,0.00,VWS V14.01,2013-03-13 07:34:00,
2013-03-13 02:39:00,37.2,34.0,30.39,SSW,205,0.0,0.0,88,0.00,,---,0.00,VWS V14.01,2013-03-13 07:39:00,
2013-03-13 02:44:00,37.2,34.0,30.39,SW,218,0.0,0.0,88,0.00,,---,0.00,VWS V14.01,2013-03-13 07:44:00,
2013-03-13 02:49:00,37.1,33.6,30.39,SSE,152,0.0,0.0,87,0.00,,---,0.00,VWS V14.01,2013-03-13 07:49:00,
2013-03-13 02:54:00,37.1,33.9,30.39,ENE,61,0.0,0.0,88,0.00,,---,0.00,VWS V14.01,2013-03-13 07:54:00,
2013-03-13 02:59:00,37.0,33.5,30.39,East,83,0.0,0.0,87,0.00,,---,0.00,VWS V14.01,2013-03-13 07:59:00,
2013-03-13 03:05:00,36.8,33.9,30.38,NE,56,2.0,3.0,89,0.00,,---,0.00,VWS V14.01,2013-03-13 08:05:00,
2013-03-13 03:10:00,37.7,34.8,30.38,NE,40,1.0,3.0,89,0.00,,---,0.00,VWS V14.01,2013-03-13 08:10:00,
2013-03-13 03:15:00,38.0,34.8,30.38,NNE,27,2.0,3.0,88,0.00,,---,0.00,VWS V14.01,2013-03-13 08:15:00,
2013-03-13 03:20:00,38.0,34.5,30.38,NNE,24,2.0,3.0,87,0.00,,---,0.00,VWS V14.01,2013-03-13 08:20:00,
2013-03-13 03:25:00,37.9,34.1,30.38,ENE,71,0.0,3.0,86,0.00,,---,0.00,VWS V14.01,2013-03-13 08:25:00,
2013-03-13 03:30:00,37.9,34.7,30.38,ENE,70,0.0,3.0,88,0.00,,---,0.00,VWS V14.01,2013-03-13 08:30:00,
2013-03-13 06:00:00,33.8,31.5,30.39,SSE,158,2.0,4.0,91,0.00,,---,0.00,VWS V14.01,2013-03-13 11:00:00,
2013-03-13 06:50:00,33.3,31.0,30.39,SSW,199,3.0,3.0,91,0.00,,---,0.00,VWS V14.01,2013-03-13 11:50:00,
2013-03-13 06:55:00,33.3,31.0,30.40,South,188,2.0,3.0,91,0.00,,---,0.00,VWS V14.01,2013-03-13 11:55:00,
2013-03-13 07:00:00,33.2,30.9,30.40,SSW,201,3.0,3.0,91,0.00,,---,0.00,VWS V14.01,2013-03-13 12:00:00,
2013-03-13 07:05:00,33.2,31.1,30.40,SSW,211,3.0,4.0,92,0.00,,---,0.00,VWS V14.01,2013-03-13 12:05:00,
2013-03-13 07:10:00,33.2,31.1,30.40,SSW,205,1.0,4.0,92,0.00,,---,0.00,VWS V14.01,2013-03-13 12:10:00,
2013-03-13 07:15:00,33.0,30.7,30.40,SW,236,0.0,4.0,91,0.00,,---,0.00,VWS V14.01,2013-03-13 12:15:00,
2013-03-13 07:20:00,32.6,30.3,30.40,SW,235,0.0,4.0,91,0.00,,---,0.00,VWS V14.01,2013-03-13 12:20:00,
2013-03-13 07:25:00,32.1,29.8,30.40,SW,235,0.0,4.0,91,0.00,,---,0.00,VWS V14.01,2013-03-13 12:25:00,
2013-03-13 07:30:00,31.8,29.5,30.40,SW,236,0.0,4.0,91,0.00,,---,0.00,VWS V14.01,2013-03-13 12:30:00,
2013-03-13 07:36:00,31.5,29.5,30.40,SW,236,0.0,0.0,92,0.00,,---,0.00,VWS V14.01,2013-03-13 12:36:00,
2013-03-13 07:41:00,31.3,29.2,30.40,SW,236,0.0,0.0,92,0.00,,---,0.00,VWS V14.01,2013-03-13 12:41:00,
2013-03-13 07:46:00,31.4,29.4,30.40,SW,236,0.0,0.0,92,0.00,,---,0.00,VWS V14.01,2013-03-13 12:46:00,
2013-03-13 07:51:00,31.3,29.2,30.40,SW,236,0.0,0.0,92,0.00,,---,0.00,VWS V14.01,2013-03-13 12:51:00,
2013-03-13 07:56:00,31.3,29.2,30.40,SW,235,0.0,0.0,92,0.00,,---,0.00,VWS V14.01,2013-03-13 12:56:00,
2013-03-13 08:01:00,31.6,29.5,30.40,SW,235,0.0,0.0,92,0.00,,---,0.00,VWS V14.01,2013-03-13 13:01:00,
2013-03-13 08:06:00,32.3,30.5,30.40,SW,235,0.0,0.0,93,0.00,,---,0.00,VWS V14.01,2013-03-13 13:06:00,
2013-03-13 08:11:00,32.9,30.8,30.41,SSE,153,0.0,0.0,92,0.00,,---,0.00,VWS V14.01,2013-03-13 13:11:00,
2013-03-13 08:17:00,33.6,31.3,30.40,SSE,153,0.0,0.0,91,0.00,,---,0.00,VWS V14.01,2013-03-13 13:17:00,
2013-03-13 08:22:00,34.1,31.5,30.40,SE,142,0.0,1.0,90,0.00,,---,0.00,VWS V14.01,2013-03-13 13:22:00,
2013-03-13 08:27:00,34.5,31.9,30.41,SE,139,1.0,2.0,90,0.00,,---,0.00,VWS V14.01,2013-03-13 13:27:00,
2013-03-13 08:32:00,34.9,32.3,30.41,SE,138,0.0,1.0,90,0.00,,---,0.00,VWS V14.01,2013-03-13 13:32:00,
2013-03-13 08:37:00,35.3,32.4,30.41,SE,134,0.0,1.0,89,0.00,,---,0.00,VWS V14.01,2013-03-13 13:37:00,
2013-03-13 08:42:00,36.0,32.8,30.42,SE,134,0.0,1.0,88,0.00,,---,0.00,VWS V14.01,2013-03-13 13:42:00,
2013-03-13 08:47:00,37.4,34.2,30.42,SE,134,0.0,1.0,88,0.00,,---,0.00,VWS V14.01,2013-03-13 13:47:00,
2013-03-13 08:52:00,39.1,35.6,30.42,SE,134,0.0,1.0,87,0.00,,---,0.00,VWS V14.01,2013-03-13 13:52:00,
2013-03-13 08:58:00,40.1,35.4,30.42,ENE,61,0.0,1.0,83,0.00,,---,0.00,VWS V14.01,2013-03-13 13:58:00,
2013-03-13 09:03:00,39.6,34.9,30.42,ENE,73,0.0,1.0,83,0.00,,---,0.00,VWS V14.01,2013-03-13 14:03:00,
2013-03-13 09:08:00,39.4,35.0,30.43,ENE,70,1.0,2.0,84,0.00,,---,0.00,VWS V14.01,2013-03-13 14:08:00,
2013-03-13 09:13:00,39.6,35.8,30.42,ENE,70,0.0,2.0,86,0.00,,---,0.00,VWS V14.01,2013-03-13 14:13:00,
2013-03-13 09:18:00,39.8,35.7,30.42,ENE,67,1.0,2.0,85,0.00,,---,0.00,VWS V14.01,2013-03-13 14:18:00,
2013-03-13 09:23:00,40.4,36.3,30.43,NE,56,1.0,2.0,85,0.00,,---,0.00,VWS V14.01,2013-03-13 14:23:00,
2013-03-13 09:28:00,41.0,36.8,30.42,NE,56,3.0,3.0,85,0.00,,---,0.00,VWS V14.01,2013-03-13 14:28:00,
2013-03-13 09:33:00,41.8,37.6,30.43,East,82,1.0,3.0,85,0.00,,---,0.00,VWS V14.01,2013-03-13 14:33:00,
2013-03-13 09:39:00,42.4,38.2,30.43,ENE,67,2.0,3.0,85,0.00,,---,0.00,VWS V14.01,2013-03-13 14:39:00,
2013-03-13 09:44:00,43.2,38.4,30.43,ENE,76,3.0,4.0,83,0.00,,---,0.00,VWS V14.01,2013-03-13 14:44:00,
2013-03-13 09:49:00,43.9,39.4,30.43,ENE,74,4.0,4.0,84,0.00,,---,0.00,VWS V14.01,2013-03-13 14:49:00,
2013-03-13 09:54:00,44.9,39.8,30.43,SE,128,2.0,4.0,82,0.00,,---,0.00,VWS V14.01,2013-03-13 14:54:00,
2013-03-13 09:59:00,45.6,39.8,30.43,East,88,1.0,4.0,80,0.00,,---,0.00,VWS V14.01,2013-03-13 14:59:00,
2013-03-13 10:04:00,47.1,40.9,30.43,ENE,74,0.0,2.0,79,0.00,,---,0.00,VWS V14.01,2013-03-13 15:04:00,
2013-03-13 10:09:00,48.2,41.3,30.43,SSE,151,1.0,3.0,77,0.00,,---,0.00,VWS V14.01,2013-03-13 15:09:00,
2013-03-13 10:14:00,49.6,41.3,30.43,South,179,1.0,4.0,73,0.00,,---,0.00,VWS V14.01,2013-03-13 15:14:00,
2013-03-13 10:19:00,50.8,41.8,30.44,ESE,120,0.0,4.0,71,0.00,,---,0.00,VWS V14.01,2013-03-13 15:19:00,
2013-03-13 10:24:00,51.6,40.6,30.44,South,170,3.0,5.0,66,0.00,,---,0.00,VWS V14.01,2013-03-13 15:24:00,
2013-03-13 10:30:00,52.1,40.7,30.44,SSE,154,2.0,5.0,65,0.00,,---,0.00,VWS V14.01,2013-03-13 15:30:00,
2013-03-13 10:35:00,52.4,39.8,30.44,South,170,4.0,5.0,62,0.00,,---,0.00,VWS V14.01,2013-03-13 15:35:00,
2013-03-13 10:40:00,52.5,39.0,30.45,ESE,103,3.0,7.0,60,0.00,,---,0.00,VWS V14.01,2013-03-13 15:40:00,
2013-03-13 10:45:00,53.0,39.5,30.45,SE,124,5.0,7.0,60,0.00,,---,0.00,VWS V14.01,2013-03-13 15:45:00,
2013-03-13 10:50:00,53.3,38.0,30.45,ESE,110,5.0,9.0,56,0.00,,---,0.00,VWS V14.01,2013-03-13 15:50:00,
2013-03-13 10:55:00,53.3,38.0,30.45,SE,127,6.0,9.0,56,0.00,,---,0.00,VWS V14.01,2013-03-13 15:55:00,
2013-03-13 11:00:00,53.6,37.8,30.45,South,174,7.0,9.0,55,0.00,,---,0.00,VWS V14.01,2013-03-13 16:00:00,
2013-03-13 11:06:00,54.0,37.8,30.45,SSE,153,5.0,8.0,54,0.00,,---,0.00,VWS V14.01,2013-03-13 16:06:00,
2013-03-13 11:11:00,54.1,37.4,30.45,South,180,3.0,8.0,53,0.00,,---,0.00,VWS V14.01,2013-03-13 16:11:00,
2013-03-13 11:16:00,54.6,38.3,30.45,ESE,113,5.0,8.0,54,0.00,,---,0.00,VWS V14.01,2013-03-13 16:16:00,
2013-03-13 11:21:00,55.2,37.9,30.44,East,94,4.0,9.0,52,0.00,,---,0.00,VWS V14.01,2013-03-13 16:21:00,
2013-03-13 11:26:00,55.3,38.0,30.44,ESE,117,7.0,9.0,52,0.00,,---,0.00,VWS V14.01,2013-03-13 16:26:00,
2013-03-13 11:31:00,55.8,37.5,30.43,ESE,112,10.0,10.0,50,0.00,,---,0.00,VWS V14.01,2013-03-13 16:31:00,
2013-03-13 11:36:00,56.1,37.2,30.43,SSE,156,9.0,10.0,49,0.00,,---,0.00,VWS V14.01,2013-03-13 16:36:00,
2013-03-13 11:42:00,56.4,36.4,30.43,SSE,152,4.0,10.0,47,0.00,,---,0.00,VWS V14.01,2013-03-13 16:42:00,
2013-03-13 11:47:00,56.8,37.9,30.43,SE,135,5.0,10.0,49,0.00,,---,0.00,VWS V14.01,2013-03-13 16:47:00,
2013-03-13 11:52:00,57.2,36.6,30.43,SSE,148,6.0,10.0,46,0.00,,---,0.00,VWS V14.01,2013-03-13 16:52:00,
2013-03-13 11:57:00,57.4,37.3,30.43,ESE,113,8.0,10.0,47,0.00,,---,0.00,VWS V14.01,2013-03-13 16:57:00,
2013-03-13 12:02:00,57.3,37.3,30.43,SSW,212,3.0,6.0,47,0.00,,---,0.00,VWS V14.01,2013-03-13 17:02:00,
2013-03-13 12:07:00,58.0,38.4,30.44,SE,143,6.0,10.0,48,0.00,,---,0.00,VWS V14.01,2013-03-13 17:07:00,
2013-03-13 12:12:00,57.9,37.8,30.43,SSW,200,7.0,11.0,47,0.00,,---,0.00,VWS V14.01,2013-03-13 17:12:00,
2013-03-13 12:18:00,58.2,38.1,30.43,SE,143,4.0,12.0,47,0.00,,---,0.00,VWS V14.01,2013-03-13 17:18:00,
2013-03-13 12:23:00,58.3,37.6,30.43,SE,127,8.0,12.0,46,0.00,,---,0.00,VWS V14.01,2013-03-13 17:23:00,
2013-03-13 12:28:00,58.5,37.8,30.43,SSE,159,13.0,13.0,46,0.00,,---,0.00,VWS V14.01,2013-03-13 17:28:00,
2013-03-13 12:33:00,58.5,37.8,30.43,East,94,6.0,8.0,46,0.00,,---,0.00,VWS V14.01,2013-03-13 17:33:00,
2013-03-13 12:38:00,59.1,37.8,30.43,East,101,4.0,8.0,45,0.00,,---,0.00,VWS V14.01,2013-03-13 17:38:00,
2013-03-13 12:43:00,59.7,37.8,30.43,SSE,155,6.0,16.0,44,0.00,,---,0.00,VWS V14.01,2013-03-13 17:43:00,
2013-03-13 12:48:00,59.7,37.8,30.42,ESE,117,5.0,16.0,44,0.00,,---,0.00,VWS V14.01,2013-03-13 17:48:00,
2013-03-13 12:53:00,60.1,37.5,30.42,SSE,153,7.0,16.0,43,0.00,,---,0.00,VWS V14.01,2013-03-13 17:53:00,
2013-03-13 12:58:00,60.7,37.5,30.41,South,177,6.0,16.0,42,0.00,,---,0.00,VWS V14.01,2013-03-13 17:58:00,
2013-03-13 13:03:00,61.0,39.0,30.41,South,190,6.0,12.0,44,0.00,,---,0.00,VWS V14.01,2013-03-13 18:03:00,
2013-03-13 13:09:00,61.2,38.0,30.41,SE,144,8.0,15.0,42,0.00,,---,0.00,VWS V14.01,2013-03-13 18:09:00,
2013-03-13 13:14:00,61.4,38.7,30.40,SE,132,14.0,15.0,43,0.00,,---,0.00,VWS V14.01,2013-03-13 18:14:00,
2013-03-13 13:19:00,62.0,38.7,30.40,SE,131,6.0,15.0,42,0.00,,---,0.00,VWS V14.01,2013-03-13 18:19:00,
2013-03-13 13:24:00,62.1,37.5,30.40,SE,139,15.0,18.0,40,0.00,,---,0.00,VWS V14.01,2013-03-13 18:24:00,
2013-03-13 13:29:00,61.7,37.8,30.39,ESE,120,9.0,18.0,41,0.00,,---,0.00,VWS V14.01,2013-03-13 18:29:00,
2013-03-13 13:34:00,62.2,37.6,30.39,South,174,8.0,13.0,40,0.00,,---,0.00,VWS V14.01,2013-03-13 18:34:00,
2013-03-13 13:39:00,62.5,37.9,30.38,SE,139,7.0,14.0,40,0.00,,---,0.00,VWS V14.01,2013-03-13 18:39:00,
2013-03-13 13:44:00,62.8,37.5,30.38,South,188,9.0,14.0,39,0.00,,---,0.00,VWS V14.01,2013-03-13 18:44:00,
2013-03-13 13:49:00,63.5,38.8,30.37,SE,131,12.0,14.0,40,0.00,,---,0.00,VWS V14.01,2013-03-13 18:49:00,
2013-03-13 13:54:00,63.5,36.8,30.37,South,184,10.0,14.0,37,0.00,,---,0.00,VWS V14.01,2013-03-13 18:54:00,
2013-03-13 13:59:00,63.8,37.7,30.37,SSE,149,10.0,14.0,38,0.00,,---,0.00,VWS V14.01,2013-03-13 18:59:00,
2013-03-13 14:04:00,63.8,37.0,30.36,South,172,12.0,17.0,37,0.00,,---,0.00,VWS V14.01,2013-03-13 19:04:00,
2013-03-13 14:09:00,64.0,37.2,30.36,South,172,11.0,17.0,37,0.00,,---,0.00,VWS V14.01,2013-03-13 19:09:00,
2013-03-13 14:15:00,64.0,37.9,30.35,SE,141,16.0,17.0,38,0.00,,---,0.00,VWS V14.01,2013-03-13 19:15:00,
2013-03-13 14:20:00,64.3,37.5,30.35,SE,142,6.0,17.0,37,0.00,,---,0.00,VWS V14.01,2013-03-13 19:20:00,
2013-03-13 14:25:00,65.1,37.5,30.34,South,179,10.0,17.0,36,0.00,,---,0.00,VWS V14.01,2013-03-13 19:25:00,
2013-03-13 14:30:00,65.1,36.8,30.34,SE,136,12.0,17.0,35,0.00,,---,0.00,VWS V14.01,2013-03-13 19:30:00,
2013-03-13 14:35:00,65.4,37.1,30.34,SSE,149,9.0,18.0,35,0.00,,---,0.00,VWS V14.01,2013-03-13 19:35:00,
2013-03-13 14:40:00,65.3,37.0,30.34,SSE,163,8.0,18.0,35,0.00,,---,0.00,VWS V14.01,2013-03-13 19:40:00,
2013-03-13 14:45:00,65.4,37.1,30.34,SSW,194,9.0,18.0,35,0.00,,---,0.00,VWS V14.01,2013-03-13 19:45:00,
2013-03-13 14:50:00,65.6,38.0,30.33,SE,129,12.0,18.0,36,0.00,,---,0.00,VWS V14.01,2013-03-13 19:50:00,
2013-03-13 14:55:00,65.9,36.8,30.33,South,176,14.0,18.0,34,0.00,,---,0.00,VWS V14.01,2013-03-13 19:55:00,
2013-03-13 15:00:00,66.2,36.3,30.33,SE,142,8.0,18.0,33,0.00,,---,0.00,VWS V14.01,2013-03-13 20:00:00,
2013-03-13 15:06:00,66.3,36.4,30.32,SSE,162,6.0,18.0,33,0.00,,---,0.00,VWS V14.01,2013-03-13 20:06:00,
2013-03-13 15:11:00,66.5,36.5,30.32,SE,139,10.0,18.0,33,0.00,,---,0.00,VWS V14.01,2013-03-13 20:11:00,
2013-03-13 15:16:00,66.7,36.7,30.32,SE,138,9.0,18.0,33,0.00,,---,0.00,VWS V14.01,2013-03-13 20:16:00,
2013-03-13 15:21:00,66.8,36.0,30.31,SSE,156,4.0,18.0,32,0.00,,---,0.00,VWS V14.01,2013-03-13 20:21:00,
2013-03-13 15:26:00,67.1,36.3,30.31,SE,127,8.0,18.0,32,0.00,,---,0.00,VWS V14.01,2013-03-13 20:26:00,
2013-03-13 15:31:00,67.4,35.7,30.31,SSE,149,11.0,12.0,31,0.00,,---,0.00,VWS V14.01,2013-03-13 20:31:00,
2013-03-13 15:37:00,67.5,37.4,30.31,SE,127,10.0,12.0,33,0.00,,---,0.00,VWS V14.01,2013-03-13 20:37:00,
2013-03-13 15:42:00,67.3,37.2,30.30,SSE,158,10.0,13.0,33,0.00,,---,0.00,VWS V14.01,2013-03-13 20:42:00,
2013-03-13 15:47:00,67.3,35.7,30.30,SE,131,11.0,17.0,31,0.00,,---,0.00,VWS V14.01,2013-03-13 20:47:00,
2013-03-13 15:52:00,67.6,36.7,30.30,South,169,10.0,17.0,32,0.00,,---,0.00,VWS V14.01,2013-03-13 20:52:00,
2013-03-13 15:57:00,67.5,36.6,30.29,SE,133,11.0,17.0,32,0.00,,---,0.00,VWS V14.01,2013-03-13 20:57:00,
2013-03-13 16:02:00,67.9,37.8,30.29,SSE,163,10.0,11.0,33,0.00,,---,0.00,VWS V14.01,2013-03-13 21:02:00,
2013-03-13 16:07:00,68.0,36.3,30.29,SSE,149,9.0,17.0,31,0.00,,---,0.00,VWS V14.01,2013-03-13 21:07:00,
2013-03-13 16:12:00,68.0,37.1,30.28,SSE,165,10.0,17.0,32,0.00,,---,0.00,VWS V14.01,2013-03-13 21:12:00,
2013-03-13 16:18:00,68.3,37.3,30.28,SE,141,8.0,19.0,32,0.00,,---,0.00,VWS V14.01,2013-03-13 21:18:00,
2013-03-13 16:23:00,68.3,36.5,30.28,SE,138,5.0,19.0,31,0.00,,---,0.00,VWS V14.01,2013-03-13 21:23:00,
2013-03-13 16:28:00,68.1,36.3,30.28,ESE,120,4.0,19.0,31,0.00,,---,0.00,VWS V14.01,2013-03-13 21:28:00,
2013-03-13 16:33:00,68.3,36.5,30.28,SSE,152,8.0,15.0,31,0.00,,---,0.00,VWS V14.01,2013-03-13 21:33:00,
2013-03-13 16:38:00,68.6,37.6,30.28,SE,127,10.0,15.0,32,0.00,,---,0.00,VWS V14.01,2013-03-13 21:38:00,
2013-03-13 16:43:00,68.7,36.0,30.28,SSE,159,7.0,15.0,30,0.00,,---,0.00,VWS V14.01,2013-03-13 21:43:00,
2013-03-13 16:49:00,68.8,36.1,30.28,SSE,151,8.0,18.0,30,0.00,,---,0.00,VWS V14.01,2013-03-13 21:49:00,
2013-03-13 16:54:00,68.7,36.0,30.28,SSE,160,10.0,18.0,30,0.00,,---,0.00,VWS V14.01,2013-03-13 21:54:00,
2013-03-13 16:59:00,68.6,36.8,30.27,SSW,193,10.0,18.0,31,0.00,,---,0.00,VWS V14.01,2013-03-13 21:59:00,
2013-03-13 17:04:00,68.7,35.2,30.28,SE,127,5.0,15.0,29,0.00,,---,0.00,VWS V14.01,2013-03-13 22:04:00,
2013-03-13 17:09:00,68.8,36.1,30.27,SE,141,9.0,17.0,30,0.00,,---,0.00,VWS V14.01,2013-03-13 22:09:00,
2013-03-13 17:14:00,68.9,36.2,30.27,South,183,6.0,17.0,30,0.00,,---,0.00,VWS V14.01,2013-03-13 22:14:00,
2013-03-13 17:19:00,69.0,36.3,30.27,SSE,153,7.0,17.0,30,0.00,,---,0.00,VWS V14.01,2013-03-13 22:19:00,
2013-03-13 17:24:00,68.7,36.9,30.27,SSE,152,8.0,17.0,31,0.00,,---,0.00,VWS V14.01,2013-03-13 22:24:00,
2013-03-13 17:29:00,68.8,37.0,30.27,SSE,149,7.0,17.0,31,0.00,,---,0.00,VWS V14.01,2013-03-13 22:29:00,
2013-03-13 17:34:00,69.0,36.3,30.27,South,189,8.0,11.0,30,0.00,,---,0.00,VWS V14.01,2013-03-13 22:34:00,
2013-03-13 17:39:00,69.0,36.3,30.27,SSE,159,5.0,11.0,30,0.00,,---,0.00,VWS V14.01,2013-03-13 22:39:00,
2013-03-13 17:44:00,69.0,36.3,30.26,SSE,155,11.0,12.0,30,0.00,,---,0.00,VWS V14.01,2013-03-13 22:44:00,
2013-03-13 17:49:00,69.0,36.3,30.26,South,183,8.0,13.0,30,0.00,,---,0.00,VWS V14.01,2013-03-13 22:49:00,
2013-03-13 17:55:00,69.1,36.4,30.26,SSE,161,12.0,14.0,30,0.00,,---,0.00,VWS V14.01,2013-03-13 22:55:00,
2013-03-13 18:00:00,69.0,36.3,30.26,SE,138,7.0,14.0,30,0.00,,---,0.00,VWS V14.01,2013-03-13 23:00:00,
2013-03-13 18:05:00,69.1,36.4,30.26,SE,124,4.0,12.0,30,0.00,,---,0.00,VWS V14.01,2013-03-13 23:05:00,
2013-03-13 18:10:00,69.4,36.7,30.26,SE,136,4.0,12.0,30,0.00,,---,0.00,VWS V14.01,2013-03-13 23:10:00,
2013-03-13 18:15:00,69.2,36.5,30.26,SSE,155,5.0,13.0,30,0.00,,---,0.00,VWS V14.01,2013-03-13 23:15:00,
2013-03-13 18:20:00,69.3,36.6,30.26,SSE,161,9.0,13.0,30,0.00,,---,0.00,VWS V14.01,2013-03-13 23:20:00,
2013-03-13 18:25:00,69.0,36.3,30.26,SSE,148,8.0,13.0,30,0.00,,---,0.00,VWS V14.01,2013-03-13 23:25:00,
2013-03-13 18:30:00,68.8,36.1,30.26,SE,127,7.0,13.0,30,0.00,,---,0.00,VWS V14.01,2013-03-13 23:30:00,
2013-03-13 18:35:00,68.5,35.9,30.26,SE,143,7.0,12.0,30,0.00,,---,0.00,VWS V14.01,2013-03-13 23:35:00,
2013-03-13 18:40:00,68.6,36.8,30.26,SE,139,5.0,12.0,31,0.00,,---,0.00,VWS V14.01,2013-03-13 23:40:00,
2013-03-13 18:45:00,68.4,36.6,30.26,SE,146,6.0,12.0,31,0.00,,---,0.00,VWS V14.01,2013-03-13 23:45:00,
2013-03-13 18:50:00,68.2,36.4,30.26,SSE,154,4.0,12.0,31,0.00,,---,0.00,VWS V14.01,2013-03-13 23:50:00,
2013-03-13 18:56:00,68.0,37.8,30.26,SE,129,2.0,12.0,33,0.00,,---,0.00,VWS V14.01,2013-03-13 23:56:00,
2013-03-13 19:01:00,67.8,36.9,30.26,ESE,120,2.0,12.0,32,0.00,,---,0.00,VWS V14.01,2013-03-14 00:01:00,
2013-03-13 19:06:00,67.6,37.5,30.26,ESE,120,5.0,5.0,33,0.00,,---,0.00,VWS V14.01,2013-03-14 00:06:00,
2013-03-13 19:11:00,67.3,37.2,30.26,ESE,122,2.0,5.0,33,0.00,,---,0.00,VWS V14.01,2013-03-14 00:11:00,
2013-03-13 19:17:00,66.9,36.9,30.26,ESE,108,2.0,5.0,33,0.00,,---,0.00,VWS V14.01,2013-03-14 00:17:00,
2013-03-13 19:22:00,66.4,37.9,30.26,ESE,108,3.0,5.0,35,0.00,,---,0.00,VWS V14.01,2013-03-14 00:22:00,
2013-03-13 19:27:00,66.0,37.6,30.26,East,101,1.0,5.0,35,0.00,,---,0.00,VWS V14.01,2013-03-14 00:27:00,
2013-03-13 19:32:00,65.5,37.2,30.26,ESE,114,2.0,2.0,35,0.00,,---,0.00,VWS V14.01,2013-03-14 00:32:00,
2013-03-13 19:37:00,65.2,36.9,30.26,East,91,2.0,4.0,35,0.00,,---,0.00,VWS V14.01,2013-03-14 00:37:00,
2013-03-13 19:42:00,64.6,36.3,30.26,East,98,2.0,4.0,35,0.00,,---,0.00,VWS V14.01,2013-03-14 00:42:00,
2013-03-13 19:47:00,63.8,36.4,30.26,East,96,2.0,4.0,36,0.00,,---,0.00,VWS V14.01,2013-03-14 00:47:00,
2013-03-13 19:52:00,63.3,36.6,30.26,East,101,2.0,4.0,37,0.00,,---,0.00,VWS V14.01,2013-03-14 00:52:00,
2013-03-13 19:57:00,62.7,36.8,30.26,East,84,2.0,4.0,38,0.00,,---,0.00,VWS V14.01,2013-03-14 00:57:00,
2013-03-13 20:02:00,62.4,36.5,30.26,East,84,3.0,3.0,38,0.00,,---,0.00,VWS V14.01,2013-03-14 01:02:00,
2013-03-13 20:08:00,61.8,36.0,30.26,East,80,4.0,5.0,38,0.00,,---,0.00,VWS V14.01,2013-03-14 01:08:00,
2013-03-13 20:13:00,60.9,35.8,30.26,East,89,3.0,5.0,39,0.00,,---,0.00,VWS V14.01,2013-03-14 01:13:00,
2013-03-13 20:18:00,60.1,36.3,30.26,East,97,3.0,5.0,41,0.00,,---,0.00,VWS V14.01,2013-03-14 01:18:00,
2013-03-13 20:23:00,59.8,36.7,30.26,East,101,5.0,6.0,42,0.00,,---,0.00,VWS V14.01,2013-03-14 01:23:00,
2013-03-13 20:28:00,59.8,36.7,30.26,East,91,6.0,8.0,42,0.00,,---,0.00,VWS V14.01,2013-03-14 01:28:00,
2013-03-13 20:33:00,59.7,36.6,30.26,East,97,7.0,7.0,42,0.00,,---,0.00,VWS V14.01,2013-03-14 01:33:00,
2013-03-13 20:38:00,59.4,36.3,30.26,ESE,115,5.0,7.0,42,0.00,,---,0.00,VWS V14.01,2013-03-14 01:38:00,
2013-03-13 20:43:00,58.9,36.5,30.26,East,97,5.0,7.0,43,0.00,,---,0.00,VWS V14.01,2013-03-14 01:43:00,
2013-03-13 20:48:00,58.8,36.4,30.26,East,82,7.0,8.0,43,0.00,,---,0.00,VWS V14.01,2013-03-14 01:48:00,
2013-03-13 20:54:00,58.8,36.4,30.26,East,100,7.0,8.0,43,0.00,,---,0.00,VWS V14.01,2013-03-14 01:54:00,
2013-03-13 20:59:00,58.6,36.2,30.25,ESE,107,5.0,8.0,43,0.00,,---,0.00,VWS V14.01,2013-03-14 01:59:00,
2013-03-13 21:04:00,58.4,36.0,30.25,East,101,6.0,8.0,43,0.00,,---,0.00,VWS V14.01,2013-03-14 02:04:00,
2013-03-13 21:09:00,58.0,36.2,30.25,ESE,107,5.0,9.0,44,0.00,,---,0.00,VWS V14.01,2013-03-14 02:09:00,
2013-03-13 21:14:00,57.5,36.3,30.25,ESE,102,6.0,9.0,45,0.00,,---,0.00,VWS V14.01,2013-03-14 02:14:00,
2013-03-13 21:19:00,57.1,36.5,30.25,SE,124,6.0,9.0,46,0.00,,---,0.00,VWS V14.01,2013-03-14 02:19:00,
2013-03-13 21:24:00,57.1,36.5,30.25,ESE,105,6.0,9.0,46,0.00,,---,0.00,VWS V14.01,2013-03-14 02:24:00,
2013-03-13 21:29:00,56.9,36.9,30.25,East,97,6.0,9.0,47,0.00,,---,0.00,VWS V14.01,2013-03-14 02:29:00,
2013-03-13 21:34:00,56.9,36.9,30.25,East,101,7.0,11.0,47,0.00,,---,0.00,VWS V14.01,2013-03-14 02:34:00,
2013-03-13 21:39:00,56.9,36.9,30.26,East,96,8.0,11.0,47,0.00,,---,0.00,VWS V14.01,2013-03-14 02:39:00,
2013-03-13 21:45:00,57.2,36.6,30.26,ESE,105,8.0,11.0,46,0.00,,---,0.00,VWS V14.01,2013-03-14 02:45:00,
2013-03-13 21:50:00,57.3,36.7,30.26,East,101,7.0,11.0,46,0.00,,---,0.00,VWS V14.01,2013-03-14 02:50:00,
2013-03-13 21:55:00,57.0,37.0,30.26,ESE,109,10.0,11.0,47,0.00,,---,0.00,VWS V14.01,2013-03-14 02:55:00,
2013-03-13 22:00:00,57.2,37.2,30.26,ESE,102,5.0,11.0,47,0.00,,---,0.00,VWS V14.01,2013-03-14 03:00:00,
2013-03-13 22:05:00,57.5,36.9,30.25,East,97,5.0,10.0,46,0.00,,---,0.00,VWS V14.01,2013-03-14 03:05:00,
2013-03-13 22:10:00,57.6,37.0,30.25,ESE,107,7.0,10.0,46,0.00,,---,0.00,VWS V14.01,2013-03-14 03:10:00,
2013-03-13 22:15:00,57.4,36.8,30.26,ESE,103,5.0,10.0,46,0.00,,---,0.00,VWS V14.01,2013-03-14 03:15:00,
2013-03-13 22:20:00,57.3,36.7,30.26,East,101,9.0,10.0,46,0.00,,---,0.00,VWS V14.01,2013-03-14 03:20:00,
2013-03-13 22:25:00,57.4,36.8,30.26,East,95,6.0,10.0,46,0.00,,---,0.00,VWS V14.01,2013-03-14 03:25:00,
2013-03-13 22:30:00,57.5,36.9,30.26,East,97,6.0,10.0,46,0.00,,---,0.00,VWS V14.01,2013-03-14 03:30:00,
2013-03-13 22:36:00,57.4,36.8,30.26,ESE,102,5.0,10.0,46,0.00,,---,0.00,VWS V14.01,2013-03-14 03:36:00,
2013-03-13 22:41:00,57.2,37.2,30.26,ESE,105,4.0,10.0,47,0.00,,---,0.00,VWS V14.01,2013-03-14 03:41:00,
2013-03-13 22:46:00,57.0,37.0,30.25,ESE,108,6.0,10.0,47,0.00,,---,0.00,VWS V14.01,2013-03-14 03:46:00,
2013-03-13 22:51:00,56.7,37.2,30.26,SE,135,7.0,11.0,48,0.00,,---,0.00,VWS V14.01,2013-03-14 03:51:00,
2013-03-13 22:56:00,56.6,37.2,30.26,ESE,120,7.0,11.0,48,0.00,,---,0.00,VWS V14.01,2013-03-14 03:56:00,
2013-03-13 23:00:00,56.8,37.3,30.26,ESE,120,6.0,11.0,48,0.00,,---,0.00,VWS V14.01,2013-03-14 04:00:00,
2013-03-13 23:01:00,56.8,37.3,30.26,ESE,122,6.0,11.0,48,0.00,,---,0.00,VWS V14.01,2013-03-14 04:01:00,
2013-03-13 23:06:00,56.6,37.2,30.26,ESE,105,7.0,9.0,48,0.00,,---,0.00,VWS V14.01,2013-03-14 04:06:00,
2013-03-13 23:11:00,56.2,37.3,30.26,ESE,110,7.0,10.0,49,0.00,,---,0.00,VWS V14.01,2013-03-14 04:11:00,
2013-03-13 23:16:00,55.9,37.5,30.26,ESE,113,5.0,10.0,50,0.00,,---,0.00,VWS V14.01,2013-03-14 04:16:00,
2013-03-13 23:21:00,55.6,37.3,30.26,ESE,122,7.0,10.0,50,0.00,,---,0.00,VWS V14.01,2013-03-14 04:21:00,
2013-03-13 23:26:00,55.3,37.5,30.26,SE,124,8.0,12.0,51,0.00,,---,0.00,VWS V14.01,2013-03-14 04:26:00,
2013-03-13 23:31:00,55.0,37.2,30.26,ESE,121,7.0,8.0,51,0.00,,---,0.00,VWS V14.01,2013-03-14 04:31:00,
2013-03-13 23:37:00,54.6,37.3,30.26,ESE,115,8.0,9.0,52,0.00,,---,0.00,VWS V14.01,2013-03-14 04:37:00,
2013-03-13 23:42:00,54.5,37.2,30.26,ESE,121,7.0,11.0,52,0.00,,---,0.00,VWS V14.01,2013-03-14 04:42:00,
2013-03-13 23:47:00,54.3,37.5,30.26,SE,131,9.0,11.0,53,0.00,,---,0.00,VWS V14.01,2013-03-14 04:47:00,
2013-03-13 23:52:00,54.2,37.5,30.26,ESE,110,6.0,11.0,53,0.00,,---,0.00,VWS V14.01,2013-03-14 04:52:00,
2013-03-13 23:57:00,54.1,37.4,30.26,SE,131,6.0,11.0,53,0.00,,---,0.00,VWS V14.01,2013-03-14 04:57:00,